Weather History for 16253 - November, 2012

Change the Weather History Date:

Sunday, November 25, 2012

  Actual Average Record
Temperature  
Mean Temperature 53 °F -  
Max Temperature 64 °F 58 °F - ()
Min Temperature 42 °F 41 °F - ()
Degree Days  
Heating Degree Days 12    
Growing Degree Days 3 (Base 50)    
Moisture  
Dew Point 47 °F    
Average Humidity 89    
Maximum Humidity 100    
Minimum Humidity 60    
Precipitation  
Precipitation 0.00 in 0.14 in - ()
Sea Level Pressure  
Sea Level Pressure 30.21 in    
Wind  
Wind Speed 3 mph ()    
Max Wind Speed 6 mph    
Max Gust Speed -    
Visibility 2.9 miles    
Events      
T = Trace of Precipitation, MM = Missing Value Source: Averaged Metar Reports

Daily Weather History Graph

Daily Weather History Graph

Search for Another Location

Airport or City:

Trip Planner

Search our weather history database for the weather conditions in past years. The results will help you decide how hot, cold, wet, or windy it might be!

Date:

Astronomy

Nov. 25, 2012 Rise Set
Actual Time 7:03 AM CET 4:38 PM CET
Civil Twilight 6:32 AM CET 5:08 PM CET
Nautical Twilight 5:59 AM CET 5:42 PM CET
Astronomical Twilight 5:26 AM CET 6:15 PM CET
Moon 2:46 PM CET (11/25) 3:59 AM CET (11/25)
Length of Visible Light 10h 35m
Length of Day
9h 34m
Waxing Gibbous, 91% of the Moon is Illuminated
Nov 25
Waxing Gibbous
Nov 28
Full
Dec 6
Last Quarter
Dec 13
New
Dec 20
First Quarter

Hourly Weather History & Observations

Time (CET) Temp. Windchill Dew Point Humidity Pressure Visibility Wind Dir Wind Speed Gust Speed Precip Events Conditions
12:55 AM 46.4 °F 44.3 °F 44.6 °F 93% 30.24 in 0.7 mi NNE 4.6 mph - N/A   Scattered Clouds
1:00 AM 46 °F - 45 °F 94% 30.25 in 1 mi NNE 4.6 mph - -   Mist
1:55 AM 44.6 °F - 42.8 °F 93% 30.24 in 0.7 mi NNE 2.3 mph - N/A   Mostly Cloudy
2:55 AM 44.6 °F 43.1 °F 42.8 °F 93% 30.21 in 0.7 mi NE 3.5 mph - N/A   Mostly Cloudy
3:55 AM 44.6 °F 42.2 °F 42.8 °F 93% 30.24 in 0.7 mi East 4.6 mph - N/A   Scattered Clouds
4:00 AM 44 °F - 43 °F 94% 30.25 in 1 mi East 4.6 mph - -   Mist
4:55 AM 42.8 °F 40.1 °F 42.8 °F 100% 30.21 in 0.7 mi ENE 4.6 mph - N/A   Scattered Clouds
5:55 AM 44.6 °F 42.2 °F 44.6 °F 100% 30.21 in 0.9 mi NE 4.6 mph - N/A   Scattered Clouds
6:55 AM 44.6 °F 42.2 °F 44.6 °F 100% 30.21 in 0.9 mi NNE 4.6 mph - N/A   Scattered Clouds
7:00 AM 45 °F - 45 °F 98% 30.22 in 1 mi NNE 4.6 mph - -   Mist
7:55 AM 46.4 °F 45.2 °F 44.6 °F 93% 30.21 in 1.2 mi NNE 3.5 mph - N/A   Scattered Clouds
8:55 AM 46.4 °F 45.2 °F 46.4 °F 100% 30.24 in 1.2 mi NNE 3.5 mph - N/A   Partly Cloudy
9:55 AM 51.8 °F - 48.2 °F 88% 30.24 in 1.9 mi NNE 5.8 mph - N/A   Partly Cloudy
10:00 AM 52 °F - 48 °F 83% 30.25 in 2 mi NNE 5.8 mph - -   Mist
10:55 AM 55.4 °F - 50.0 °F 82% 30.24 in 3.1 mi NNE 3.5 mph - N/A   Scattered Clouds
12:55 PM 60.8 °F - 51.8 °F 72% 30.21 in 5.0 mi Calm Calm - N/A   Partly Cloudy
1:00 PM 62 °F - 52 °F 60% 30.22 in 5 mi Calm Calm - -  
1:55 PM 64.4 °F - 53.6 °F 68% 30.18 in 6.2 mi West 2.3 mph - N/A   Scattered Clouds
2:55 PM 64.4 °F - 51.8 °F 64% 30.18 in 6.2 mi SSW 2.3 mph - N/A   Partly Cloudy
3:55 PM 62.6 °F - 53.6 °F 72% 30.18 in 6.2 mi West 2.3 mph - N/A   Partly Cloudy
4:00 PM 63 °F - 54 °F 65% 30.19 in 6 mi West 2.3 mph - -   Scattered Clouds
4:55 PM 59.0 °F - 53.6 °F 82% 30.18 in 5.0 mi West 3.5 mph - N/A   Unknown
5:55 PM 53.6 °F - 50.0 °F 88% 30.18 in 5.0 mi West 2.3 mph - N/A   Unknown
6:55 PM 50.0 °F - 48.2 °F 94% 30.18 in 4.3 mi ENE 2.3 mph - N/A   Unknown
7:00 PM 50 °F - 49 °F 95% 30.19 in 4 mi ENE 2.3 mph - -  
7:55 PM 46.4 °F - 44.6 °F 93% 30.18 in 3.7 mi Calm Calm - N/A   Unknown
8:55 PM 44.6 °F - 44.6 °F 100% 30.21 in 3.1 mi Calm Calm - N/A   Mist
9:55 PM 44.6 °F 42.2 °F 44.6 °F 100% 30.18 in 3.1 mi NNE 4.6 mph - N/A   Mist
10:00 PM 45 °F - 45 °F 98% 30.20 in 3 mi NNE 4.6 mph - -   Mist
10:55 PM 44.6 °F 41.4 °F 44.6 °F 100% 30.18 in 3.1 mi NNE 5.8 mph - N/A   Mist
11:55 PM 44.6 °F 42.2 °F 44.6 °F 100% 30.18 in 1.9 mi ENE 4.6 mph - N/A   Mist